Location: Carri�res
(48.9069°N, 2.1792°E)
Time: 18:28:11
(UTC+00:00)

SeaSat 1 - Pass Details

Date: 15 May 2021
Orbit: 744 x 747 km, 108.0° (Epoch: 12 June)

Event Time Altitude Azimuth Distance (km) Brightness Sun altitude
Rises 01:48:10 0° 23° (NNE) 3,203 7.4 -17.1°
Reaches altitude 10° 01:50:41 10° 12° (NNE) 2,275 6.1 -16.9°
Maximum altitude 01:54:51 28° 314° (NW) 1,378 3.9 -16.5°
Enters shadow 01:58:19 13° 262° (W) 2,038 4.3 -16.2°
